Regional Weather Roundup
Issued by NWS

Home | Current Version | Previous Version | Graphics & Text | Print | Product List | Glossary On
Versions: 1 2 3 4 5 6 7 8 9 10 11 12 13 14 15 16 17 18 19 20 21 22 23 24 25 26 27
000
ASUS45 KBOU 231606
RWRCO

WEATHER ROUNDUP FOR COLORADO
NATIONAL WEATHER SERVICE DENVER/BOULDER CO
1000 AM MDT WED APR 23 2014

NOTE: "FAIR" INDICATES FEW OR NO CLOUDS BELOW 12000 FEET WITH NO
SIGNIFICANT WEATHER AND/OR OBSTRUCTIONS TO VISIBILITY.

COZ001>005-013-030-031-231700-
...NORTHWEST COLORADO...

CITY           SKY/WX    TMP DP  RH WIND       PRES   REMARKS
CRAIG          CLOUDY    40  30  67 N14       29.89R
HAYDEN         CLOUDY    39  30  70 W14       29.90R
MEEKER         PTSUNNY   44  21  40 W9G18     29.89R
MOUNT WERNER   CLOUDY    28  27  93 SW13      29.92R VSB<1/4 WCI  18
STEAMBOAT SPGS CLOUDY    38  32  78 W8        29.87R
WALDEN         PTSUNNY   41  28  60 SW14      29.82R
$$

COZ006>008-011-231700-
...WEST CENTRAL VALLEYS...

CITY           SKY/WX    TMP DP  RH WIND       PRES   REMARKS
GRAND JUNCTION PTSUNNY   53  20  27 NW13      29.85R
MONTROSE       MOSUNNY   57  23  26 NW13G20   29.84R
EAGLE          MOSUNNY   52  28  40 CALM      29.82
RIFLE          MOSUNNY   52  15  23 N12G17    29.84S
DELTA          NOT AVBL
NUCLA          NOT AVBL
$$

COZ017>023-064>068-231700-
...SOUTHWEST COLORADO...

CITY           SKY/WX    TMP DP  RH WIND       PRES   REMARKS
DURANGO        SUNNY     57  17  21 SW12G30   29.87S
CORTEZ         SUNNY     59  22  24 S10       29.86S
PAGOSA SPRINGS PTSUNNY   54  18  24 SW14G21   29.91S
TELLURIDE      NOT AVBL
WOLF CREEK PAS MOSUNNY   30  19  64 SW23G43   29.99R WCI  17
$$

COZ009-010-012-014-032>034-037-058>063-231700-
...CENTRAL COLORADO...

CITY           SKY/WX    TMP DP  RH WIND       PRES   REMARKS
ASPEN          PTSUNNY   48  26  42 NW15      29.83R
BUENA VISTA    MOSUNNY   53  19  26 SW5       29.80F
COPPER MTN     CLOUDY    34  19  55 SW17G26   29.92S WCI  23
BERTHOUD PASS  CLOUDY    27  16  63 W25       29.92F HAZE    WCI  11
COTTONWOOD PAS MOSUNNY   46   7  19 W24G38    29.86S
GUNNISON       MOSUNNY   52  18  25 W21G28    29.86R
KREMMLING      MOSUNNY   48  27  43 N14       29.83S
LEADVILLE      PTSUNNY   39  13  34 SW8       29.85S
MONARCH PASS   CLOUDY    32  19  59 W26G37    30.05R WCI  18
SALIDA         CLOUDY    60  24  25 SW7G18    29.87F
SUNLIGHT       MOSUNNY   32  23  69 SW5       29.91R WCI  27
WILKERSON PASS SUNNY     37  21  52 SW12G21   29.93R
$$

COZ069>075-231700-
...SAN LUIS VALLEY/SANGRE DE CRISTO MOUNTAINS...

CITY           SKY/WX    TMP DP  RH WIND       PRES   REMARKS
ALAMOSA        SUNNY     59  19  21 SW20G30   29.82F
LA VETA PASS   SUNNY     45  21  39 SW15G29   29.92R
SAGUACHE       CLOUDY    54  21  28 NE7       29.82R
$$

COZ035-036-038>040-231700-
...NORTHERN COLORADO FRONT RANGE...

CITY           SKY/WX    TMP DP  RH WIND       PRES   REMARKS
DENVER INTL AP MOSUNNY   68  28  22 NW17      29.63S
DMNS CITY PARK   N/A     67  31  26 W5G14     29.63F
AURORA         MOSUNNY   68  27  21 SW17      29.66R
FRONT RANGE AP MOSUNNY   70  28  21 SW9       29.65R
ERIE MUNI ARPT SUNNY     65  29  26 W21G29    29.63F
BOULDER MUN AP SUNNY     63  30  29 SW17G25   29.64F
CENTENNIAL     MOSUNNY   65  23  20 W10G22    29.66S
BROOMFIELD     MOSUNNY   63  32  31 W20       29.65S
FORT COLLINS   SUNNY     64  30  27 W14       29.63F
LONGMONT       NOT AVBL
$$

COZ041-046-047-076>085-087-088-231700-
...PIKES PEAK/PALMER DIVIDE AND SOUTHERN FOOTHILLS...

CITY           SKY/WX    TMP DP  RH WIND       PRES   REMARKS
COLO. SPRINGS  MOSUNNY   67  22  18 S15G22    29.69F
A. F. ACADEMY  SUNNY     65  18  16 SW21G30   29.70S
ELLICOTT       NOT AVBL
FALCON         SUNNY     63  21  20 SW16G24   29.73F
FORT CARSON    SUNNY     68  23  17 S23G29    29.66F
LIMON          MOSUNNY   70  28  21 S17G24    29.65F
MONUMENT HILL  MOSUNNY   61  23  23 W8        29.72F
TRINIDAD       MOSUNNY   70  19  14 SW18      29.73F
$$

COZ042>045-048>051-090-091-231700-
...NORTHEAST COLORADO...

CITY           SKY/WX    TMP DP  RH WIND       PRES   REMARKS
GREELEY ARPT   SUNNY     66  37  34 NW16G26   29.62R
AKRON          CLOUDY    58  40  51 N20       29.64R
BURLINGTON     CLOUDY    69  43  38 SW25G32   29.64R
WRAY           CLOUDY    69  43  39 SW17G26   29.57R
STERLING       NOT AVBL
HOLYOKE        NOT AVBL
FORT MORGAN    NOT AVBL
$$

COZ086-089-092>099-231700-
...SOUTHEAST COLORADO...

CITY           SKY/WX    TMP DP  RH WIND       PRES   REMARKS
PUEBLO         SUNNY     74  26  16 SW17      29.63F
LA JUNTA       PTSUNNY   74  32  21 SW26      29.64F
LAMAR          CLOUDY    75  40  28 SW21      29.61F
SPRINGFIELD      N/A     69  43  38 SW18G29   29.70F
$$



USA.gov is the U.S. government's official web portal to all federal, state and local government web resources and services.